KG4IFE-13 Weather Reports


time (UTC)temp
C
wind
direction
speed
KPH
gust
KPH
rain 1hr
cm
rain 24hr
cm
rain mn
cm
humidity
%
barometer
mb
20260906122149 21 244 1.6 6.4 0.00 0.00 0.00 88 1015.3
20260906121732 21 244 1.6 6.4 0.00 0.00 0.00 88 1015.3
20260906121149 21 243 1.6 4.8 0.00 0.00 0.00 88 1015.2
20260906120707 21 243 1.6 4.8 0.00 0.00 0.00 88 1015.2
20260906120147 21 270 1.6 3.2 0.00 0.00 0.00 88 1014.9
20260906115706 21 270 1.6 3.2 0.00 0.00 0.00 88 1014.9
20260906115144 21 270 1.6 3.2 0.00 0.00 0.00 88 1014.9
20260906114643 21 270 1.6 3.2 0.00 0.00 0.00 88 1014.9
20260906114142 21 270 1.6 3.2 0.00 0.00 0.00 88 1014.9
20260906113641 21 255 1.6 4.8 0.00 0.00 0.00 88 1014.8
20260906113141 21 255 1.6 4.8 0.00 0.00 0.00 88 1014.8
20260906112639 21 270 1.6 3.2 0.00 0.00 0.00 88 1014.8
20260906112140 21 270 1.6 3.2 0.00 0.00 0.00 88 1014.8
20260906111637 21 270 1.6 3.2 0.00 0.00 0.00 89 1014.6
20260906111136 21 270 1.6 3.2 0.00 0.00 0.00 89 1014.6
20260906110634 21 270 1.6 3.2 0.00 0.00 0.00 89 1014.6
20260906110136 21 270 1.6 3.2 0.00 0.00 0.00 89 1014.6
20260906105633 21 270 1.6 3.2 0.00 0.00 0.00 89 1014.6
20260906105144 21 270 1.6 3.2 0.00 0.00 0.00 89 1014.6
20260906104633 21 255 1.6 3.2 0.00 0.00 0.00 89 1014.6
20260906104149 21 255 1.6 3.2 0.00 0.00 0.00 89 1014.6
20260906103631 21 251 1.6 4.8 0.00 0.00 0.00 89 1014.6
20260906103129 21 251 1.6 4.8 0.00 0.00 0.00 89 1014.6
20260906102626 20 270 1.6 3.2 0.00 0.00 0.00 89 1014.4
20260906102139 20 270 1.6 3.2 0.00 0.00 0.00 89 1014.4
20260906101625 20 270 1.6 3.2 0.00 0.00 0.00 89 1014.4
20260906101127 20 270 1.6 3.2 0.00 0.00 0.00 89 1014.4
20260906100624 20 270 1.6 1.6 0.00 0.00 0.00 89 1014.3
20260906100121 20 270 1.6 1.6 0.00 0.00 0.00 89 1014.3
20260906095642 20 270 1.6 3.2 0.00 0.00 0.00 89 1014.4
20260906095119 20 270 1.6 3.2 0.00 0.00 0.00 89 1014.4
20260906094621 20 270 1.6 3.2 0.00 0.00 0.00 89 1014.1
20260906094117 20 270 1.6 3.2 0.00 0.00 0.00 89 1014.1
20260906093618 20 270 1.6 3.2 0.00 0.00 0.00 89 1014.3
20260906093115 20 270 1.6 3.2 0.00 0.00 0.00 89 1014.3
20260906092615 20 270 1.6 3.2 0.00 0.00 0.00 89 1014.2
20260906092114 20 270 1.6 3.2 0.00 0.00 0.00 89 1014.2
20260906091613 20 270 1.6 4.8 0.00 0.00 0.00 88 1014.0
20260906091112 20 270 1.6 4.8 0.00 0.00 0.00 88 1014.0
20260906090632 20 270 1.6 1.6 0.00 0.00 0.00 88 1013.8
20260906090110 20 270 1.6 1.6 0.00 0.00 0.00 88 1013.8
20260906085610 20 270 1.6 4.8 0.00 0.00 0.00 88 1013.8
20260906085110 20 270 1.6 4.8 0.00 0.00 0.00 88 1013.8
20260906084607 19 270 1.6 3.2 0.00 0.00 0.00 88 1013.6
20260906084106 19 270 1.6 3.2 0.00 0.00 0.00 88 1013.6
20260906083606 19 270 1.6 3.2 0.00 0.00 0.00 88 1013.6
20260906083105 19 270 1.6 3.2 0.00 0.00 0.00 88 1013.6
20260906082603 19 270 1.6 4.8 0.00 0.00 0.00 88 1013.5
20260906082103 19 270 1.6 4.8 0.00 0.00 0.00 88 1013.5
20260906081602 19 270 1.6 4.8 0.00 0.00 0.00 87 1013.6
20260906081114 19 270 1.6 4.8 0.00 0.00 0.00 87 1013.6
20260906080559 19 270 1.6 3.2 0.00 0.00 0.00 87 1013.5
20260906080058 19 270 1.6 3.2 0.00 0.00 0.00 87 1013.5
20260906075558 19 270 1.6 4.8 0.00 0.00 0.00 87 1013.5
20260906075056 19 270 1.6 4.8 0.00 0.00 0.00 87 1013.5
20260906074616 20 270 1.6 3.2 0.00 0.00 0.00 87 1013.3
20260906074115 20 270 1.6 3.2 0.00 0.00 0.00 87 1013.3
20260906073613 20 270 1.6 3.2 0.00 0.00 0.00 87 1013.3
20260906073053 20 270 1.6 3.2 0.00 0.00 0.00 87 1013.3
20260906072551 20 270 1.6 3.2 0.00 0.00 0.00 87 1013.5
20260906072052 20 270 1.6 3.2 0.00 0.00 0.00 87 1013.5
20260906071630 20 270 1.6 3.2 0.00 0.00 0.00 87 1013.6
20260906071110 20 270 1.6 3.2 0.00 0.00 0.00 87 1013.6
20260906070547 20 270 1.6 4.8 0.00 0.00 0.00 87 1013.7
20260906070107 20 270 1.6 4.8 0.00 0.00 0.00 87 1013.7
20260906065544 20 270 1.6 3.2 0.00 0.00 0.00 87 1013.7
20260906065105 20 270 1.6 3.2 0.00 0.00 0.00 87 1013.7
20260906064604 20 270 1.6 3.2 0.00 0.00 0.00 87 1013.8
20260906064042 20 270 1.6 3.2 0.00 0.00 0.00 87 1013.8
20260906063544 20 255 1.6 3.2 0.00 0.00 0.00 87 1013.9
20260906063041 20 255 1.6 3.2 0.00 0.00 0.00 87 1013.9
20260906062602 20 270 1.6 1.6 0.00 0.00 0.00 86 1013.9
20260906062038 20 270 1.6 1.6 0.00 0.00 0.00 86 1013.9
20260906061537 20 251 1.6 4.8 0.00 0.00 0.00 86 1013.9
20260906061046 20 251 1.6 4.8 0.00 0.00 0.00 86 1013.9
20260906060537 20 270 1.6 3.2 0.00 0.00 0.00 86 1013.9
20260906060034 20 270 1.6 3.2 0.00 0.00 0.00 86 1013.9
20260906055533 20 270 1.6 3.2 0.00 0.00 0.00 86 1014.0
20260906055033 20 270 1.6 3.2 0.00 0.00 0.00 86 1014.0
20260906054532 20 270 1.6 3.2 0.00 0.00 0.00 85 1014.1
20260906054032 20 270 1.6 3.2 0.00 0.00 0.00 85 1014.1
20260906053529 20 270 1.6 3.2 0.00 0.00 0.00 85 1014.1
20260906053027 20 270 1.6 3.2 0.00 0.00 0.00 85 1014.1
20260906052528 20 270 1.6 3.2 0.00 0.00 0.00 85 1013.9
20260906052026 20 270 1.6 3.2 0.00 0.00 0.00 85 1013.9
20260906051525 20 255 1.6 3.2 0.00 0.00 0.00 84 1014.0
20260906051045 20 255 1.6 3.2 0.00 0.00 0.00 84 1014.0
20260906050534 21 254 1.6 3.2 0.00 0.00 0.00 84 1013.9
20260906050036 21 254 1.6 3.2 0.00 0.00 0.00 84 1013.9
20260906045523 21 270 1.6 4.8 0.00 0.00 0.00 83 1014.0
20260906045020 21 270 1.6 4.8 0.00 0.00 0.00 83 1014.0
20260906044540 21 270 1.6 3.2 0.00 0.00 0.00 83 1013.8
20260906044019 21 270 1.6 3.2 0.00 0.00 0.00 83 1013.8
20260906043518 21 270 1.6 4.8 0.00 0.00 0.00 82 1013.9
20260906043026 21 270 1.6 4.8 0.00 0.00 0.00 82 1013.9
20260906042536 21 270 1.6 3.2 0.00 0.00 0.00 81 1014.1
20260906042015 21 270 1.6 3.2 0.00 0.00 0.00 81 1014.1
20260906041514 21 254 1.6 3.2 0.00 0.00 0.00 81 1014.0
20260906041012 21 254 1.6 3.2 0.00 0.00 0.00 81 1014.0
20260906040531 22 288 1.6 3.2 0.00 0.00 0.00 80 1013.9
20260906040045 22 288 1.6 3.2 0.00 0.00 0.00 80 1013.9
20260906035509 22 270 1.6 4.8 0.00 0.00 0.00 79 1014.2
20260906035039 22 270 1.6 4.8 0.00 0.00 0.00 79 1014.2
20260906034519 22 270 1.6 4.8 0.00 0.00 0.00 79 1014.2
20260906034018 22 270 1.6 4.8 0.00 0.00 0.00 79 1014.2
20260906033515 22 243 1.6 4.8 0.00 0.00 0.00 78 1014.3
20260906033025 22 243 1.6 4.8 0.00 0.00 0.00 78 1014.3
20260906032514 22 270 1.6 3.2 0.00 0.00 0.00 78 1014.3
20260906032051 22 270 1.6 3.2 0.00 0.00 0.00 78 1014.3
20260906031501 22 270 1.6 3.2 0.00 0.00 0.00 77 1014.2
20260906031000 22 270 1.6 3.2 0.00 0.00 0.00 77 1014.2
20260906030500 22 270 1.6 3.2 0.00 0.00 0.00 77 1014.1
20260906025958 22 270 1.6 3.2 0.00 0.00 0.00 77 1014.1
20260906025457 23 270 1.6 4.8 0.00 0.00 0.00 76 1014.0
20260906025017 23 270 1.6 4.8 0.00 0.00 0.00 76 1014.0
20260906024456 23 270 1.6 3.2 0.00 0.00 0.00 76 1014.0
20260906024015 23 270 1.6 3.2 0.00 0.00 0.00 76 1014.0
20260906023513 23 270 1.6 3.2 0.00 0.00 0.00 75 1014.0
20260906022953 23 270 1.6 3.2 0.00 0.00 0.00 75 1014.0
20260906022452 23 270 1.6 3.2 0.00 0.00 0.00 74 1013.8
20260906021952 23 270 1.6 3.2 0.00 0.00 0.00 74 1013.8
20260906021448 23 270 1.6 3.2 0.00 0.00 0.00 73 1013.8
20260906020949 23 270 1.6 3.2 0.00 0.00 0.00 73 1013.8
20260906020447 24 270 1.6 4.8 0.00 0.00 0.00 72 1013.7
20260906015945 24 270 1.6 4.8 0.00 0.00 0.00 72 1013.7
20260906015446 24 270 1.6 3.2 0.00 0.00 0.00 72 1013.5
20260906014945 24 270 1.6 3.2 0.00 0.00 0.00 72 1013.5
20260906014443 25 270 1.6 4.8 0.00 0.00 0.00 71 1013.3
20260906013942 25 270 1.6 4.8 0.00 0.00 0.00 71 1013.3
20260906013442 25 210 1.6 3.2 0.00 0.00 0.00 69 1013.3
20260906012941 25 210 1.6 3.2 0.00 0.00 0.00 69 1013.3
20260906012439 25 220 1.6 3.2 0.00 0.00 0.00 68 1013.1
20260906011939 25 220 1.6 3.2 0.00 0.00 0.00 68 1013.1
20260906011437 26 222 1.6 4.8 0.00 0.00 0.00 67 1013.1
20260906010936 26 222 1.6 4.8 0.00 0.00 0.00 67 1013.1
20260906010438 26 225 1.6 3.2 0.00 0.00 0.00 66 1013.2
20260906005934 26 225 1.6 3.2 0.00 0.00 0.00 66 1013.2
20260906005433 26 225 1.6 4.8 0.00 0.00 0.00 64 1013.0
20260906004934 26 225 1.6 4.8 0.00 0.00 0.00 64 1013.0
20260906004431 27 235 1.6 4.8 0.00 0.00 0.00 63 1012.9
20260906003931 27 235 1.6 4.8 0.00 0.00 0.00 63 1012.9
20260906003451 27 270 1.6 3.2 0.00 0.00 0.00 61 1012.9
20260906002928 27 270 1.6 3.2 0.00 0.00 0.00 61 1012.9
20260906002428 28 270 1.6 3.2 0.00 0.00 0.00 61 1012.7
20260906001926 28 270 1.6 3.2 0.00 0.00 0.00 61 1012.7
20260906001427 28 270 1.6 1.6 0.00 0.00 0.00 60 1012.5
20260906000925 28 270 1.6 1.6 0.00 0.00 0.00 60 1012.5
20260906000425 28 270 1.6 3.2 0.00 0.00 0.00 60 1012.4
20260906000004 28 270 1.6 3.2 0.00 0.00 0.00 60 1012.4
20260905235421 28 270 1.6 3.2 0.00 0.00 0.00 60 1012.4
20260905234920 28 270 1.6 3.2 0.00 0.00 0.00 60 1012.4
20260905234421 28 270 1.6 3.2 0.00 0.00 0.00 59 1012.4
20260905234000 28 270 1.6 3.2 0.00 0.00 0.00 59 1012.4
20260905233417 29 270 1.6 1.6 0.00 0.00 0.00 59 1012.4
20260905232916 29 270 1.6 1.6 0.00 0.00 0.00 59 1012.4
20260905232416 29 270 1.6 3.2 0.00 0.00 0.00 58 1012.4
20260905231914 29 270 1.6 3.2 0.00 0.00 0.00 58 1012.4
20260905231433 29 270 1.6 3.2 0.00 0.00 0.00 58 1012.4
20260905230925 30 270 1.6 3.2 0.00 0.00 0.00 57 1012.4
20260905230412 30 270 1.6 4.8 0.00 0.00 0.00 57 1012.5
20260905225932 30 270 1.6 4.8 0.00 0.00 0.00 57 1012.5
20260905225411 30 270 1.6 3.2 0.00 0.00 0.00 57 1012.4
20260905224909 30 270 1.6 3.2 0.00 0.00 0.00 57 1012.4
20260905224407 30 270 1.6 4.8 0.00 0.00 0.00 57 1012.3
20260905223927 30 270 1.6 4.8 0.00 0.00 0.00 57 1012.3
20260905223426 31 270 1.6 3.2 0.00 0.00 0.00 57 1012.3
20260905222905 31 270 1.6 3.2 0.00 0.00 0.00 57 1012.3
20260905222405 31 270 1.6 4.8 0.00 0.00 0.00 55 1012.3
20260905221903 31 270 1.6 4.8 0.00 0.00 0.00 55 1012.3
20260905221401 31 270 1.6 3.2 0.00 0.00 0.00 55 1012.2
20260905220901 31 270 1.6 3.2 0.00 0.00 0.00 55 1012.2
20260905220400 31 270 1.6 3.2 0.00 0.00 0.00 55 1012.2
20260905215858 31 270 1.6 3.2 0.00 0.00 0.00 54 1012.2
20260905215357 31 270 1.6 3.2 0.00 0.00 0.00 54 1012.2
20260905214857 31 296 1.6 4.8 0.00 0.00 0.00 54 1012.1
20260905214356 31 296 1.6 4.8 0.00 0.00 0.00 54 1012.1
20260905213856 31 288 1.6 3.2 0.00 0.00 0.00 54 1012.0
20260905213353 31 288 1.6 3.2 0.00 0.00 0.00 54 1012.0
20260905212853 32 270 1.6 6.4 0.00 0.00 0.00 52 1011.9
20260905212351 32 270 1.6 6.4 0.00 0.00 0.00 52 1011.9
20260905211850 32 270 1.6 4.8 0.00 0.00 0.00 53 1011.9
20260905211349 32 270 1.6 4.8 0.00 0.00 0.00 53 1011.9
20260905210850 32 270 1.6 4.8 0.00 0.00 0.00 53 1011.9
20260905210347 32 270 1.6 4.8 0.00 0.00 0.00 53 1011.9
20260905205845 32 270 1.6 3.2 0.00 0.00 0.00 51 1011.9
20260905205357 32 270 1.6 3.2 0.00 0.00 0.00 51 1011.9
20260905204844 33 270 1.6 4.8 0.00 0.00 0.00 50 1011.9
20260905204343 33 270 1.6 4.8 0.00 0.00 0.00 50 1011.9
20260905203843 33 270 1.6 6.4 0.00 0.00 0.00 50 1011.9
20260905203344 33 270 1.6 6.4 0.00 0.00 0.00 50 1011.9
20260905202841 33 270 1.6 8.0 0.00 0.00 0.00 48 1011.9
20260905202339 33 270 1.6 8.0 0.00 0.00 0.00 48 1011.9
20260905201839 34 270 1.6 6.4 0.00 0.00 0.00 48 1011.7
20260905201338 34 270 1.6 6.4 0.00 0.00 0.00 48 1011.7
20260905200849 34 270 1.6 6.4 0.00 0.00 0.00 49 1011.7
20260905200335 34 270 1.6 6.4 0.00 0.00 0.00 49 1011.7
20260905195854 34 249 3.2 4.8 0.00 0.00 0.00 50 1011.6
20260905195336 34 249 3.2 4.8 0.00 0.00 0.00 50 1011.6
20260905190910 33 270 1.6 3.2 0.00 0.00 0.00 58 1012.5
20260905190323 33 270 1.6 3.2 0.00 0.00 0.00 58 1012.5
20260905185822 32 232 1.6 4.8 0.00 0.00 0.00 61 1012.8
20260905185322 32 232 1.6 4.8 0.00 0.00 0.00 61 1012.8
20260905184819 31 270 1.6 8.0 0.00 0.00 0.00 61 1013.1
20260905184320 31 270 1.6 8.0 0.00 0.00 0.00 61 1013.1
20260905183818 30 270 1.6 4.8 0.00 0.00 0.00 63 1013.3
20260905183317 30 270 1.6 4.8 0.00 0.00 0.00 63 1013.3
20260905182838 30 311 1.6 6.4 0.00 0.00 0.00 62 1013.5
20260905182336 30 311 1.6 6.4 0.00 0.00 0.00 62 1013.5
20260905181817 30 319 1.6 9.7 0.00 0.00 0.00 62 1013.3
20260905181313 30 319 1.6 9.7 0.00 0.00 0.00 62 1013.3
20260905180835 30 270 1.6 3.2 0.00 0.00 0.00 62 1013.3
20260905180311 30 270 1.6 3.2 0.00 0.00 0.00 62 1013.3
20260905175831 30 270 1.6 3.2 0.00 0.00 0.00 61 1013.3
20260905175310 30 270 1.6 3.2 0.00 0.00 0.00 61 1013.3
20260905174828 30 135 1.6 4.8 0.00 0.00 0.00 62 1013.5
20260905174307 30 135 1.6 4.8 0.00 0.00 0.00 62 1013.5
20260905173810 30 207 1.6 4.8 0.00 0.00 0.00 63 1013.3
20260905173305 30 207 1.6 4.8 0.00 0.00 0.00 63 1013.3
20260905172804 30 204 1.6 4.8 0.00 0.00 0.00 62 1013.7
20260905172305 30 204 1.6 4.8 0.00 0.00 0.00 62 1013.7
20260905171802 30 229 1.6 3.2 0.00 0.00 0.00 63 1013.8
20260905171301 30 229 1.6 3.2 0.00 0.00 0.00 63 1013.8
20260905170802 30 270 1.6 3.2 0.00 0.00 0.00 63 1013.9
20260905170258 30 270 1.6 3.2 0.00 0.00 0.00 63 1013.9
20260905165759 30 315 1.6 6.4 0.00 0.00 0.00 64 1014.1
20260905165300 30 315 1.6 6.4 0.00 0.00 0.00 64 1014.1
20260905164758 30 240 1.6 6.4 0.00 0.00 0.00 65 1014.2
20260905164255 30 240 1.6 6.4 0.00 0.00 0.00 65 1014.2
20260905163755 30 270 1.6 3.2 0.00 0.00 0.00 65 1014.3
20260905163313 30 270 1.6 3.2 0.00 0.00 0.00 65 1014.3
20260905162753 30 270 1.6 3.2 0.00 0.00 0.00 66 1014.5
20260905162251 30 270 1.6 3.2 0.00 0.00 0.00 66 1014.5
20260905161751 30 302 1.6 4.8 0.00 0.00 0.00 67 1014.7
20260905161248 30 302 1.6 4.8 0.00 0.00 0.00 67 1014.7
20260905160749 30 270 1.6 4.8 0.00 0.00 0.00 69 1015.0
20260905160247 30 270 1.6 4.8 0.00 0.00 0.00 69 1015.0
20260905155746 28 323 1.6 6.4 0.00 0.00 0.00 69 1014.9
20260905155246 28 323 1.6 6.4 0.00 0.00 0.00 69 1014.9
20260905154745 28 310 1.6 6.4 0.00 0.00 0.00 70 1015.1
20260905154243 28 310 1.6 6.4 0.00 0.00 0.00 70 1015.1
20260905153741 28 270 1.6 3.2 0.00 0.00 0.00 70 1015.2
20260905153242 28 270 1.6 3.2 0.00 0.00 0.00 70 1015.2
20260905152800 29 320 1.6 11.3 0.00 0.00 0.00 69 1015.2
20260905152240 29 320 1.6 11.3 0.00 0.00 0.00 69 1015.2
20260905151738 30 270 1.6 1.6 0.00 0.00 0.00 70 1014.8
20260905151238 30 270 1.6 1.6 0.00 0.00 0.00 70 1014.8
20260905150737 30 270 1.6 3.2 0.00 0.00 0.00 70 1014.6
20260905150235 30 270 1.6 3.2 0.00 0.00 0.00 70 1014.6
20260905145736 30 270 1.6 3.2 0.00 0.00 0.00 71 1014.4
20260905144731 30 270 1.6 1.6 0.00 0.00 0.00 72 1014.5
20260905144232 30 270 1.6 1.6 0.00 0.00 0.00 72 1014.5
20260905143753 30 310 1.6 4.8 0.00 0.00 0.00 74 1014.6
20260905143229 30 310 1.6 4.8 0.00 0.00 0.00 74 1014.6
20260905142728 29 306 1.6 4.8 0.00 0.00 0.00 76 1014.4
20260905142228 29 306 1.6 4.8 0.00 0.00 0.00 76 1014.4
20260905141726 29 270 1.6 3.2 0.00 0.00 0.00 78 1014.3
20260905141227 29 270 1.6 3.2 0.00 0.00 0.00 78 1014.3
20260905140724 28 302 1.6 4.8 0.00 0.00 0.00 79 1014.4
20260905140243 28 302 1.6 4.8 0.00 0.00 0.00 79 1014.4
20260905135722 28 270 1.6 1.6 0.00 0.00 0.00 81 1014.4
20260905135222 28 270 1.6 1.6 0.00 0.00 0.00 81 1014.4
20260905134720 28 270 1.6 1.6 0.00 0.00 0.00 83 1014.2
20260905134219 28 270 1.6 1.6 0.00 0.00 0.00 83 1014.2
20260905133720 27 270 1.6 1.6 0.00 0.00 0.00 85 1014.1
20260905133217 27 270 1.6 1.6 0.00 0.00 0.00 85 1014.1
20260905132739 27 270 1.6 1.6 0.00 0.00 0.00 86 1014.1
20260905132214 27 270 1.6 1.6 0.00 0.00 0.00 86 1014.1
20260905131714 26 270 1.6 3.2 0.00 0.00 0.00 88 1014.1
20260905131213 26 270 1.6 3.2 0.00 0.00 0.00 88 1014.1
20260905130711 25 270 1.6 3.2 0.00 0.00 0.00 88 1014.1
20260905130212 25 270 1.6 3.2 0.00 0.00 0.00 88 1014.1
20260905125711 23 306 1.6 1.6 0.00 0.00 0.00 89 1014.1
20260905125209 23 306 1.6 1.6 0.00 0.00 0.00 89 1014.1
20260905124708 22 359 1.6 3.2 0.00 0.00 0.00 89 1014.2
20260905124210 22 359 1.6 3.2 0.00 0.00 0.00 89 1014.2
20260905123706 22 45 1.6 4.8 0.00 0.00 0.00 89 1014.3
20260905123206 22 45 1.6 4.8 0.00 0.00 0.00 89 1014.3
20260905122705 21 45 1.6 1.6 0.00 0.00 0.00 89 1014.2